Temp
20 19 19 19 19 19 19 19 19 19 19 19 19 19 19 19 19 19 18 19 19 19 19 19 19 19 19 19 20 19 19 19 19 19 19 20 19 19 19 20 19 20
20 20 19 19 19 19 19 19 19 19 19 19 19 19 19 19 19 20 19 19 19 19 19 19 19 19 19 18 19 19 19 19 19 18 19 19 19 19 19 19 19 20
20 20 20 19 19 19 19 19 18 18 19 19 19 18 19 19 19 20 20 19 19 19 19 19 19 19 19 19 19 19 18 19 19 18 19 19 19 19 19 19 20 20
20 20 20 19 19 19 19 19 19 18 19 19 19 19 19 19 19 19 20 20 19 19 18 19 19 18 19 19 19 19 18 19 19 19 19 19 19 19 19 19 19 19
20 20 20 19 19 19 19 19 19 19 19 19 19 18 19 19 19 19 19 19 20 19 18 18 19 18 19 19 19 19 18 19 19 19 19 19 19 19 19 19 19 19
20 21 20 20 19 19 19 19 19 19 19 19 19 19 19 19 19 19 19 19 19 19 19 19 19 18 18 19 19 19 19 19 19 19 19 19 19 19 19 19 19 20
20 20 20 20 19 19 19 19 19 19 19 19 19 19 19 19 19 19 19 19 19 19 19 19 19 19 19 18 19 19 19 19 19 19 20 19 19 19 19 19 19 20
19 19 19 19 19 19 19 19 19 19 19 19 19 19 19 19 19 19 19 19 19 19 19 19 19 19 19 19 19 19 19 19 19 19 20 20 20 20 20 19 19 20
19 19 19 19 19 19 19 19 19 19 19 19 19 19 19 19 19 19 19 19 19 19 19 19 19 19 19 19 19 19 19 19 19 19 19 19 19 20 20 19 19 20
19 19 19 19 19 19 19 20 20 20 19 19 19 20 20 19 19 19 19 19 19 19 20 20 19 19 19 19 19 19 19 19 19 19 19 19 19 19 19 19 19 19
19 19 19 19 19 20 20 20 20 20 20 19 19 20 20 20 19 19 19 19 19 19 20 20 19 19 19 19 19 19 19 19 19 19 19 19 19 19 20 20 20 20
20 19 19 19 19 20 20 20 20 20 20 20 20 20 20 20 20 19 19 19 19 19 19 19 20 19 19 19 19 19 19 19 19 19 19 19 20 20 20 20 20 20
19 19 19 19 19 19 19 20 20 20 20 20 20 20 20 20 20 20 19 19 19 19 19 19 20 20 20 20 19 19 19 19 19 19 19 20 20 20 20 20 20 20
19 19 19 19 19 19 19 19 19 19 20 19 20 20 20 20 20 20 20 19 19 19 19 19 20 20 20 20 20 19 19 19 19 19 19 20 20 20 20 20 20 20
19 19 19 19 19 20 19 19 19 19 19 19 19 19 19 20 20 20 20 20 20 19 19 19 20 20 20 20 20 20 19 19 20 19 20 20 20 20 20 20 20 20
19 19 19 19 19 19 20 20 20 19 19 19 19 20 19 19 19 20 20 20 20 20 19 20 20 20 20 20 21 20 20 20 20 19 20 20 20 20 20 20 20 20
19 19 19 19 19 19 19 19 20 20 19 19 20 20 20 20 20 20 20 20 20 20 20 20 20 20 20 21 22 21 20 20 20 19 20 20 20 20 20 20 20 20
19 19 19 19 19 19 19 19 19 20 20 19 19 20 20 21 21 20 20 20 20 20 20 20 21 20 20 21 21 21 21 21 20 20 20 20 20 20 20 20 20 20
18 18 18 18 18 18 18 19 19 19 19 19 19 19 20 20 21 21 21 21 20 20 20 20 20 20 20 21 21 21 21 21 20 20 20 20 20 20 20 20 20 20
17 17 17 18 18 17 18 18 19 19 19 19 19 19 19 20 20 20 21 21 21 20 20 20 20 19 20 21 21 21 21 21 21 20 20 20 20 20 20 20 20 20
17 17 17 17 17 17 17 17 18 18 18 18 19 19 19 19 20 20 20 20 21 20 20 20 20 19 19 20 21 20 20 20 20 20 20 20 20 20 20 21 20 21
17 17 17 17 17 17 17 17 17 17 18 18 18 18 18 19 19 18 18 19 20 20 20 19 19 19 19 20 20 20 20 20 20 20 20 20 20 20 20 21 21 21
16 17 17 17 17 17 17 17 17 17 17 17 18 18 18 18 19 18 18 18 19 19 19 19 19 19 19 20 20 20 20 20 20 20 20 20 20 20 20 20 20 20
16 16 16 16 16 17 16 16 16 16 17 17 17 18 18 18 18 18 18 19 19 19 19 18 18 19 19 19 20 20 20 19 19 20 20 20 20 20 20 20 20 20
16 15 15 15 15 16 16 16 16 16 16 16 17 17 17 17 18 18 18 19 19 19 18 18 18 18 19 19 19 19 19 19 19 19 20 19 20 19 19 19 20 20
16 16 15 15 15 15 15 15 15 16 16 16 16 16 16 17 17 17 18 18 18 18 18 17 17 18 18 18 19 19 19 19 19 19 19 19 19 19 18 18 19 19
Height
1595 1597 1598 1600 1601 1602 1603 1604 1605 1606 1607 1608 1609 1609 1609 1610 1610 1611 1612 1612 1613 1613 1614 1614 1615 1615 1615 1616 1616 1616 1617 1617 1618 1618 1618 1618 1619 1619 1620 1620 1620 1620
1594 1596 1597 1599 1600 1601 1602 1603 1604 1605 1606 1607 1608 1608 1608 1609 1609 1610 1611 1611 1612 1613 1613 1614 1614 1614 1615 1616 1616 1616 1616 1617 1617 1618 1618 1618 1618 1619 1619 1619 1619 1619
1593 1595 1596 1598 1600 1601 1602 1603 1604 1604 1605 1606 1606 1607 1608 1608 1609 1609 1610 1611 1611 1612 1613 1613 1614 1614 1615 1615 1615 1616 1616 1616 1617 1618 1617 1617 1618 1618 1618 1619 1619 1619
1592 1593 1595 1597 1599 1600 1601 1602 1603 1603 1605 1606 1606 1606 1607 1608 1608 1608 1609 1610 1610 1611 1612 1612 1613 1614 1614 1614 1615 1615 1616 1616 1616 1617 1616 1616 1617 1617 1618 1618 1619 1619
1590 1592 1593 1595 1597 1599 1600 1601 1602 1603 1604 1605 1605 1605 1605 1606 1607 1608 1608 1609 1609 1610 1611 1612 1612 1613 1613 1613 1614 1615 1615 1616 1616 1616 1616 1616 1616 1617 1617 1617 1617 1618
1589 1590 1592 1593 1595 1597 1599 1600 1601 1602 1603 1604 1604 1605 1605 1605 1606 1607 1608 1608 1609 1610 1611 1611 1612 1612 1613 1613 1613 1614 1615 1616 1616 1615 1615 1616 1616 1617 1617 1617 1616 1616
1588 1589 1590 1592 1593 1595 1596 1598 1600 1601 1602 1603 1603 1604 1604 1604 1605 1605 1607 1607 1608 1609 1610 1611 1611 1611 1612 1612 1613 1613 1613 1614 1615 1614 1615 1615 1615 1616 1616 1616 1616 1616
1587 1588 1589 1590 1592 1593 1595 1596 1598 1599 1600 1601 1602 1602 1603 1604 1604 1604 1605 1606 1607 1608 1608 1609 1609 1610 1611 1612 1612 1612 1613 1614 1614 1614 1614 1614 1614 1614 1615 1615 1615 1615
1586 1587 1588 1589 1590 1592 1593 1595 1596 1597 1598 1599 1600 1602 1602 1603 1603 1604 1604 1604 1605 1606 1606 1607 1607 1608 1609 1610 1611 1611 1611 1613 1613 1613 1613 1613 1614 1614 1614 1614 1614 1614
1584 1585 1587 1588 1589 1590 1591 1593 1595 1596 1597 1597 1599 1601 1601 1601 1602 1603 1603 1603 1604 1605 1605 1606 1606 1607 1608 1608 1609 1610 1610 1611 1611 1612 1612 1612 1613 1613 1613 1613 1613 1613
1582 1583 1585 1586 1587 1589 1590 1591 1593 1594 1595 1596 1597 1599 1600 1600 1601 1601 1602 1602 1602 1603 1604 1605 1605 1606 1606 1607 1608 1608 1609 1609 1610 1610 1611 1611 1611 1612 1612 1612 1612 1612
1579 1581 1583 1584 1585 1587 1588 1590 1590 1592 1593 1594 1595 1597 1598 1599 1599 1600 1600 1600 1601 1602 1603 1603 1604 1604 1605 1605 1606 1607 1607 1608 1608 1608 1609 1609 1610 1610 1610 1611 1611 1611
1577 1579 1580 1582 1583 1584 1586 1587 1588 1590 1591 1592 1593 1594 1595 1597 1597 1598 1598 1599 1599 1600 1601 1601 1602 1603 1603 1604 1605 1606 1606 1606 1606 1607 1607 1608 1608 1609 1609 1610 1610 1610
1574 1576 1577 1579 1580 1581 1583 1585 1586 1587 1588 1589 1591 1592 1593 1594 1595 1596 1597 1597 1598 1598 1599 1600 1600 1601 1602 1602 1603 1604 1605 1605 1605 1605 1606 1606 1607 1607 1608 1608 1608 1609
1571 1573 1574 1576 1577 1578 1580 1581 1583 1584 1585 1586 1587 1589 1591 1592 1593 1595 1595 1596 1596 1597 1597 1598 1599 1599 1600 1600 1601 1602 1603 1604 1604 1604 1605 1605 1605 1605 1606 1606 1606 1607
1568 1569 1571 1573 1574 1575 1577 1578 1580 1581 1582 1583 1584 1585 1587 1589 1590 1592 1593 1594 1594 1595 1596 1596 1597 1598 1598 1598 1599 1600 1601 1602 1602 1603 1603 1603 1603 1603 1604 1604 1605 1605
1564 1566 1567 1569 1570 1572 1573 1574 1576 1578 1579 1580 1581 1582 1584 1585 1587 1588 1590 1591 1592 1593 1594 1594 1595 1596 1596 1596 1597 1597 1598 1599 1599 1600 1600 1600 1601 1601 1601 1602 1603 1603
1561 1562 1564 1565 1567 1568 1570 1571 1572 1574 1575 1577 1578 1580 1581 1583 1584 1585 1586 1588 1590 1591 1592 1592 1593 1594 1593 1594 1595 1595 1596 1596 1597 1598 1599 1599 1599 1599 1599 1600 1600 1601
1559 1560 1561 1562 1564 1565 1566 1567 1569 1570 1572 1573 1575 1577 1578 1580 1581 1582 1583 1585 1586 1588 1589 1590 1591 1591 1590 1591 1592 1593 1594 1594 1595 1596 1596 1597 1597 1597 1597 1597 1597 1598
1556 1557 1558 1560 1561 1562 1563 1564 1566 1568 1569 1570 1572 1573 1575 1576 1578 1580 1580 1581 1582 1584 1585 1586 1588 1588 1587 1588 1589 1590 1591 1592 1592 1593 1594 1594 1595 1595 1595 1595 1595 1595
1554 1555 1557 1558 1559 1560 1561 1562 1564 1565 1567 1568 1569 1570 1571 1573 1575 1577 1578 1578 1580 1581 1582 1583 1585 1585 1585 1585 1586 1587 1588 1589 1590 1590 1591 1592 1592 1592 1593 1593 1593 1593
1553 1554 1555 1555 1556 1557 1558 1559 1561 1563 1565 1566 1567 1568 1569 1570 1572 1573 1575 1576 1577 1578 1580 1581 1582 1582 1582 1582 1583 1584 1585 1586 1587 1587 1588 1589 1589 1590 1590 1590 1590 1591
1551 1552 1553 1553 1554 1555 1555 1556 1557 1559 1561 1563 1565 1566 1567 1568 1569 1571 1572 1574 1575 1576 1577 1578 1578 1578 1579 1580 1581 1582 1582 1583 1583 1584 1585 1586 1586 1587 1587 1587 1587 1587
1551 1551 1551 1552 1553 1553 1554 1554 1555 1556 1557 1560 1563 1564 1565 1566 1566 1568 1569 1571 1572 1573 1574 1575 1575 1575 1576 1577 1578 1579 1580 1580 1581 1581 1581 1582 1583 1583 1583 1583 1583 1584
1550 1550 1551 1551 1552 1553 1553 1554 1555 1555 1556 1558 1561 1562 1563 1563 1564 1565 1567 1569 1570 1571 1572 1573 1573 1573 1573 1574 1575 1576 1577 1577 1578 1578 1578 1579 1579 1580 1580 1580 1579 1580
1550 1550 1550 1551 1552 1552 1553 1554 1555 1556 1556 1558 1559 1560 1560 1561 1562 1564 1566 1567 1568 1569 1569 1569 1569 1570 1571 1572 1573 1574 1574 1575 1575 1575 1575 1576 1576 1577 1577 1577 1577 1577
Wind_Speed
15 15 15 14 13 12 11 10 9 9 8 8 7 7 8 9 9 9 9 9 9 8 8 8 8 8 7 6 7 6 6 6 5 5 5 4 4 4 4 5 5 5
16 16 16 15 14 15 14 12 10 9 10 9 8 7 8 9 9 10 9 9 8 8 8 7 7 7 6 6 7 6 7 7 5 4 5 5 4 4 4 5 5 6
16 17 17 16 15 15 14 12 12 11 10 9 9 8 8 8 9 9 9 9 8 7 7 7 6 6 6 7 7 6 7 7 5 5 6 6 5 5 4 5 5 6
17 17 17 16 14 14 13 13 13 12 10 10 10 9 9 9 9 9 9 10 9 9 8 7 7 6 7 7 7 6 7 7 6 6 7 6 6 6 5 5 6 6
17 17 17 17 15 14 14 14 13 12 11 11 10 10 11 11 10 9 9 10 9 9 9 8 7 7 7 7 6 6 6 6 6 7 7 6 6 6 5 6 7 7
17 17 17 18 17 15 15 14 14 13 12 12 11 11 11 11 11 10 10 10 9 9 8 8 8 7 7 7 7 6 6 5 7 9 7 6 7 6 6 7 7 7
16 16 16 17 18 17 16 15 14 13 12 12 11 12 11 11 11 11 11 11 10 10 9 9 9 9 8 8 7 7 7 7 8 8 7 6 7 7 7 8 8 8
16 15 15 16 17 18 17 16 15 14 14 13 12 12 12 12 12 11 12 11 10 11 11 11 11 9 8 8 8 7 6 6 7 7 6 6 7 7 7 7 8 8
16 16 15 15 16 17 17 17 16 15 15 14 13 13 12 13 12 12 12 12 11 12 12 11 11 9 9 10 9 8 7 7 7 7 7 7 7 7 7 7 8 8
16 16 16 15 15 16 17 17 16 15 15 15 14 13 13 13 13 12 13 13 12 12 12 11 11 10 10 10 10 9 8 8 8 8 8 7 7 7 7 7 8 7
17 15 15 15 15 15 15 16 16 16 15 15 15 14 13 13 13 13 13 13 12 12 11 11 11 11 11 11 10 9 9 8 8 8 7 7 7 8 8 8 8 8
18 16 15 15 15 15 14 15 16 16 16 15 15 15 15 14 13 13 13 13 13 12 11 11 11 11 11 11 11 10 10 10 9 8 8 8 8 8 8 8 8 8
18 17 16 15 14 15 14 14 15 16 16 15 15 15 16 15 14 13 13 13 13 12 12 12 12 12 12 12 12 12 12 11 10 10 9 9 8 8 8 9 9 9
18 17 17 17 16 16 15 15 15 15 16 15 15 16 16 16 15 14 14 13 13 13 12 13 13 13 13 13 13 13 12 12 11 11 10 10 9 9 9 9 9 9
23 21 20 19 19 19 18 17 16 16 17 16 17 17 16 16 15 15 15 14 13 14 14 14 14 13 13 14 14 13 11 11 11 11 11 11 10 10 10 10 10 10
26 26 24 22 21 19 19 20 19 19 18 18 19 20 18 18 17 17 16 15 15 15 15 16 15 14 16 17 16 14 13 12 12 13 13 13 12 12 12 11 11 11
28 29 28 27 25 23 22 21 21 22 21 20 20 21 20 21 20 20 18 17 16 16 16 16 15 15 18 19 17 16 17 17 16 15 14 15 14 13 13 12 12 12
27 27 27 27 27 26 25 24 24 24 24 22 21 21 21 22 22 22 21 19 17 15 15 15 14 16 19 20 17 16 18 18 17 15 14 14 14 13 13 13 13 12
23 23 23 23 23 24 25 26 27 26 25 24 22 21 21 22 22 22 22 21 19 18 17 16 14 16 20 20 17 17 17 18 18 17 15 14 14 13 14 14 14 14
20 22 22 21 21 22 23 25 27 27 26 25 23 21 21 22 22 22 22 22 22 21 20 18 16 17 21 20 17 17 18 18 19 18 17 16 15 15 15 15 15 16
18 19 20 19 20 21 21 23 25 25 24 24 23 23 22 21 20 20 20 21 21 21 21 19 17 18 21 21 18 19 20 19 20 20 19 18 18 18 17 17 17 17
18 18 18 18 19 19 19 21 23 25 24 23 23 23 22 20 19 18 18 18 19 19 19 18 16 18 22 22 20 20 21 21 21 21 21 21 21 20 20 19 18 18
12 14 14 15 17 18 19 19 20 24 26 24 22 23 23 23 20 18 17 17 17 18 19 18 17 20 23 23 22 21 22 22 22 21 21 22 22 21 21 21 20 20
7 7 8 9 11 14 18 17 17 21 26 25 21 21 21 21 21 19 17 17 17 18 18 18 18 21 24 23 22 22 23 23 22 22 21 21 21 21 21 21 22 23
7 6 5 6 6 8 11 12 11 13 18 21 21 20 18 18 18 17 17 17 17 17 16 15 16 20 22 22 20 20 21 22 22 23 22 21 20 20 19 21 23 25
9 8 7 6 5 5 6 6 6 6 8 15 19 18 17 18 16 15 15 15 14 14 14 15 17 18 17 17 17 17 18 19 19 20 21 20 20 20 19 18 19 19
Wind_Direction
205 208 208 208 207 205 206 208 210 213 212 212 218 225 222 216 212 209 211 216 215 213 217 219 216 212 211 216 212 210 217 210 215 246 242 233 235 233 246 247 237 236
206 209 210 209 211 212 210 209 209 214 220 216 213 221 222 218 215 212 211 216 214 214 220 218 221 223 213 221 230 226 227 220 213 245 248 232 230 233 240 245 244 240
208 210 212 210 214 217 215 215 215 214 219 221 217 217 217 215 218 215 212 215 211 209 221 221 222 231 226 229 237 234 237 235 215 230 246 238 231 235 238 242 244 245
211 212 213 212 215 218 217 217 219 217 216 219 219 215 209 208 215 219 215 216 210 203 213 221 216 222 231 234 238 234 237 242 231 232 243 246 241 235 235 237 236 238
216 215 214 214 213 217 219 218 219 221 219 217 217 215 212 207 207 212 216 218 215 207 211 221 220 220 230 235 233 230 236 248 258 258 253 253 255 246 242 243 237 235
221 220 218 217 215 215 218 218 219 220 220 218 216 214 215 213 208 206 210 213 211 207 207 216 218 214 222 232 227 221 222 225 248 264 265 258 256 246 243 248 245 240
221 223 223 222 220 218 218 218 220 220 218 218 217 213 211 213 212 208 208 208 206 205 203 208 216 213 213 224 225 220 219 216 235 255 258 252 252 248 247 252 252 248
219 221 225 225 222 221 220 219 220 220 219 217 218 217 212 211 214 211 209 207 203 207 205 206 220 221 210 214 221 224 224 224 239 253 251 246 252 255 253 255 258 256
219 219 222 224 223 222 221 221 221 222 222 221 219 219 217 214 213 212 213 210 205 213 214 210 219 217 204 209 219 226 225 221 228 240 246 247 250 257 259 258 261 263
222 220 220 221 222 223 222 220 220 220 223 222 220 220 219 218 213 210 217 217 210 217 221 215 216 213 206 211 220 225 227 225 226 232 242 246 244 248 251 251 257 261
224 222 221 221 221 221 222 221 219 219 221 221 219 219 218 217 214 210 217 221 215 218 223 220 219 217 212 211 214 222 226 226 230 236 241 245 247 250 252 253 257 258
225 222 221 223 221 221 221 221 220 218 218 219 218 217 216 216 215 212 215 220 217 214 219 222 222 223 222 217 213 219 224 223 226 234 238 243 248 252 258 261 262 261
225 222 222 222 221 222 221 220 221 219 219 220 219 217 217 215 215 214 214 219 221 217 218 223 225 224 227 226 220 219 225 226 226 229 234 240 245 248 251 257 260 262
222 221 224 225 225 226 225 222 221 220 219 220 219 218 219 219 218 218 217 219 223 223 221 225 228 228 230 233 230 228 230 233 233 232 233 235 240 243 246 249 252 255
225 224 227 230 230 230 231 228 225 223 221 220 220 219 219 220 220 221 222 221 222 226 227 228 230 231 231 232 233 231 231 237 241 240 239 239 240 241 244 247 250 252
231 230 229 231 230 230 231 231 230 228 225 222 224 223 221 221 220 221 224 225 225 228 232 234 234 233 235 238 237 232 228 229 236 240 239 240 242 242 243 246 248 250
234 234 234 233 232 229 228 228 228 228 227 225 227 228 229 228 226 225 225 227 230 233 236 238 237 236 243 249 248 240 235 231 232 239 243 244 246 248 248 248 249 250
235 237 238 238 236 233 230 229 228 226 226 227 227 229 231 232 232 231 230 228 229 232 234 237 236 236 244 253 252 247 245 241 238 240 245 247 249 251 251 250 251 251
236 236 237 237 237 236 235 234 232 228 226 227 227 227 230 233 234 234 234 230 226 227 230 232 234 239 244 250 250 246 246 246 244 242 243 246 247 249 252 253 254 256
232 233 235 235 234 233 234 234 232 229 226 226 224 224 226 230 232 233 235 233 230 230 233 233 232 239 245 247 245 242 241 241 243 243 243 246 248 248 251 255 257 259
222 226 228 229 232 235 238 238 234 231 229 227 223 222 223 225 226 228 231 234 233 233 237 239 236 239 246 246 240 238 237 236 237 239 242 246 250 251 253 256 258 260
220 223 224 225 229 233 237 239 237 234 233 230 227 226 225 222 221 223 225 229 233 235 239 242 239 239 245 245 239 236 236 235 235 237 241 244 249 253 255 257 258 260
220 225 229 231 234 235 236 238 238 235 233 231 231 231 229 226 224 225 226 228 233 237 239 238 236 238 244 246 243 240 237 236 236 238 241 245 248 252 256 258 260 260
184 202 214 221 231 235 234 232 234 234 230 227 225 225 226 226 225 226 229 233 234 236 237 235 236 242 247 248 247 245 242 241 242 242 243 245 248 252 256 260 262 262
140 156 177 191 202 214 218 213 209 214 216 214 216 219 218 218 217 218 228 237 239 241 240 231 230 240 245 247 248 247 247 246 247 249 250 250 253 256 258 261 265 266
106 107 114 125 149 177 198 203 193 187 188 196 207 214 213 210 208 209 220 229 231 233 231 222 223 232 238 245 249 248 249 250 249 251 254 255 257 258 257 260 265 268